Weather History for Mekoryuk, AK

Change the Weather History Date:

Friday, February 7, 2014

  Actual Average Record
Temperature  
Mean Temperature 20 °F -  
Max Temperature 24 °F 17 °F 36 °F (1986)
Min Temperature 17 °F 7 °F -9 °F (2004)
Degree Days  
Heating Degree Days 44    
Moisture  
Dew Point 10 °F    
Average Humidity 66    
Maximum Humidity 74    
Minimum Humidity 58    
Precipitation  
Precipitation 0.00 in - - ()
Sea Level Pressure  
Sea Level Pressure 30.49 in    
Wind  
Wind Speed 28 mph (NNE)    
Max Wind Speed 36 mph    
Max Gust Speed 44 mph    
Visibility 10 miles    
Events      
Averages and records for this station are not official NWS values.
T = Trace of Precipitation, MM = Missing Value Source: NWS Daily Summary

Daily Weather History Graph

Daily Weather History Graph

Search for Another Location

Airport:

Trip Planner

Search our weather history database for the weather conditions in past years. The results will help you decide how hot, cold, wet, or windy it might be!

Date:

Astronomy

Feb. 07, 2014 Rise Set
Actual Time 10:05 AM AKST 6:34 PM AKST
Civil Twilight 9:18 AM AKST 7:20 PM AKST
Nautical Twilight 8:28 AM AKST 8:10 PM AKST
Astronomical Twilight 7:39 AM AKST 8:59 PM AKST
Moon 12:33 PM AKST (2/7) 4:51 AM AKST (2/7)
Length of Visible Light 10h 01m
Length of Day
8h 29m
First Quarter, 60% of the Moon is Illuminated
Feb 7
First Quarter
Feb 14
Full
Feb 22
Last Quarter
Feb 28
New
Mar 8
First Quarter

Hourly Weather History & Observations

Time (AKST) Temp. Windchill Dew Point Humidity Pressure Visibility Wind Dir Wind Speed Gust Speed Precip Events Conditions
12:16 AM 24.8 °F 9.3 °F 15.8 °F 69% 30.59 in 10.0 mi North 24.2 mph 29.9 mph N/A   Clear
12:36 AM 23.0 °F 6.9 °F 15.8 °F 74% 30.58 in 10.0 mi North 24.2 mph - N/A   Partly Cloudy
12:56 AM 23.0 °F 7.6 °F 15.8 °F 74% 30.59 in 10.0 mi North 21.9 mph 28.8 mph N/A   Scattered Clouds
1:16 AM 23.0 °F 6.6 °F 15.8 °F 74% 30.58 in 10.0 mi North 25.3 mph 34.5 mph N/A   Mostly Cloudy
1:36 AM 23.0 °F 5.4 °F 15.8 °F 74% 30.58 in 10.0 mi North 29.9 mph 34.5 mph N/A   Overcast
1:56 AM 23.0 °F 6.3 °F 15.8 °F 74% 30.57 in 10.0 mi North 26.5 mph 32.2 mph N/A   Mostly Cloudy
2:16 AM 23.0 °F 6.9 °F 15.8 °F 74% 30.57 in 10.0 mi NNE 24.2 mph 32.2 mph N/A   Mostly Cloudy
2:36 AM 21.2 °F 3.9 °F 14.0 °F 74% 30.57 in 10.0 mi North 26.5 mph - N/A   Scattered Clouds
2:56 AM 23.0 °F 4.9 °F 12.2 °F 63% 30.57 in 10.0 mi NNE 32.2 mph 39.1 mph N/A   Mostly Cloudy
3:16 AM 21.2 °F 2.7 °F 12.2 °F 68% 30.56 in 10.0 mi NNE 31.1 mph 42.6 mph N/A   Scattered Clouds
3:36 AM 21.2 °F 1.9 °F 12.2 °F 68% 30.56 in 10.0 mi NNE 34.5 mph 41.4 mph N/A   Partly Cloudy
3:56 AM 21.2 °F 1.9 °F 12.2 °F 68% 30.55 in 10.0 mi NNE 34.5 mph 41.4 mph N/A   Partly Cloudy
4:16 AM 21.2 °F 3.3 °F 10.4 °F 63% 30.55 in 10.0 mi NNE 28.8 mph 40.3 mph N/A   Partly Cloudy
4:36 AM 21.2 °F 2.7 °F 10.4 °F 63% 30.55 in 10.0 mi NNE 31.1 mph 43.7 mph N/A   Clear
4:56 AM 21.2 °F 1.9 °F 10.4 °F 63% 30.55 in 10.0 mi NNE 34.5 mph 42.6 mph N/A   Scattered Clouds
5:16 AM 21.2 °F 2.4 °F 10.4 °F 63% 30.56 in 10.0 mi NNE 32.2 mph 40.3 mph N/A   Mostly Cloudy
5:36 AM 19.4 °F 1.4 °F 10.4 °F 68% 30.55 in 10.0 mi NNE 26.5 mph 39.1 mph N/A   Scattered Clouds
5:56 AM 19.4 °F 0.8 °F 10.4 °F 68% 30.55 in 10.0 mi NE 28.8 mph 35.7 mph N/A   Clear
6:16 AM 19.4 °F 0.2 °F 10.4 °F 68% 30.53 in 10.0 mi NE 31.1 mph 40.3 mph N/A   Partly Cloudy
6:36 AM 19.4 °F 0.2 °F 8.6 °F 63% 30.54 in 10.0 mi NE 31.1 mph 38.0 mph N/A   Partly Cloudy
6:56 AM 19.4 °F -0.3 °F 8.6 °F 63% 30.54 in 10.0 mi NE 33.4 mph 40.3 mph N/A   Scattered Clouds
7:16 AM 19.4 °F -0.3 °F 10.4 °F 68% 30.54 in 10.0 mi NNE 33.4 mph 40.3 mph N/A   Mostly Cloudy
7:36 AM 19.4 °F 0.8 °F 8.6 °F 63% 30.55 in 10.0 mi NNE 28.8 mph 36.8 mph N/A   Scattered Clouds
7:56 AM 19.4 °F 3.2 °F 8.6 °F 63% 30.56 in 10.0 mi NE 20.7 mph 31.1 mph N/A   Partly Cloudy
8:16 AM 19.4 °F 1.4 °F 8.6 °F 63% 30.55 in 10.0 mi NNE 26.5 mph 32.2 mph N/A   Clear
8:36 AM 19.4 °F 0.2 °F 8.6 °F 63% 30.54 in 10.0 mi NNE 31.1 mph 39.1 mph N/A   Clear
8:56 AM 19.4 °F 0.5 °F 8.6 °F 63% 30.55 in 10.0 mi NNE 29.9 mph 35.7 mph N/A   Clear
9:16 AM 19.4 °F 1.4 °F 6.8 °F 58% 30.55 in 10.0 mi NE 26.5 mph 33.4 mph N/A   Mostly Cloudy
9:36 AM 19.4 °F 0.2 °F 8.6 °F 63% 30.53 in 10.0 mi NNE 31.1 mph 36.8 mph N/A   Scattered Clouds
9:56 AM 17.6 °F -2.2 °F 8.6 °F 68% 30.53 in 10.0 mi NNE 31.1 mph 35.7 mph N/A   Partly Cloudy
10:16 AM 17.6 °F -2.2 °F 8.6 °F 68% 30.52 in 10.0 mi NNE 31.1 mph 34.5 mph N/A   Partly Cloudy
10:36 AM 17.6 °F -1.0 °F 8.6 °F 68% 30.52 in 10.0 mi NE 26.5 mph 33.4 mph N/A   Clear
10:56 AM 17.6 °F -1.6 °F 8.6 °F 68% 30.52 in 10.0 mi NNE 28.8 mph 36.8 mph N/A   Clear
11:16 AM 17.6 °F -0.6 °F 8.6 °F 68% 30.52 in 10.0 mi NNE 25.3 mph 31.1 mph N/A   Clear
11:36 AM 17.6 °F 0.1 °F 8.6 °F 68% 30.52 in 10.0 mi NNE 23.0 mph 31.1 mph N/A   Clear
11:56 AM 17.6 °F 0.1 °F 8.6 °F 68% 30.51 in 10.0 mi NNE 23.0 mph - N/A   Clear
12:16 PM 17.6 °F -1.3 °F 8.6 °F 68% 30.51 in 10.0 mi NNE 27.6 mph 32.2 mph N/A   Clear
12:36 PM 17.6 °F -2.2 °F 8.6 °F 68% 30.50 in 10.0 mi NE 31.1 mph 39.1 mph N/A   Clear
12:56 PM 17.6 °F -1.9 °F 8.6 °F 68% 30.49 in 10.0 mi NNE 29.9 mph 36.8 mph N/A   Clear
1:16 PM 17.6 °F -1.9 °F 8.6 °F 68% 30.49 in 10.0 mi NNE 29.9 mph 35.7 mph N/A   Clear
1:36 PM 17.6 °F -2.8 °F 8.6 °F 68% 30.47 in 10.0 mi NNE 33.4 mph - N/A   Clear
1:56 PM 19.4 °F 0.8 °F 8.6 °F 63% 30.46 in 10.0 mi NNE 28.8 mph 39.1 mph N/A   Clear
2:16 PM 19.4 °F 0.8 °F 8.6 °F 63% 30.44 in 10.0 mi NNE 28.8 mph 38.0 mph N/A   Clear
2:36 PM 19.4 °F -0.0 °F 8.6 °F 63% 30.45 in 10.0 mi NNE 32.2 mph 39.1 mph N/A   Clear
2:56 PM 19.4 °F 0.8 °F 8.6 °F 63% 30.45 in 10.0 mi NNE 28.8 mph 35.7 mph N/A   Clear
3:16 PM 19.4 °F 1.4 °F 8.6 °F 63% 30.46 in 10.0 mi NNE 26.5 mph 35.7 mph N/A   Clear
3:36 PM 19.4 °F 0.5 °F 8.6 °F 63% 30.45 in 10.0 mi NNE 29.9 mph 34.5 mph N/A   Clear
3:56 PM 19.4 °F 2.1 °F 8.6 °F 63% 30.46 in 10.0 mi NNE 24.2 mph 34.5 mph N/A   Clear
4:16 PM 19.4 °F 1.8 °F 8.6 °F 63% 30.45 in 10.0 mi NNE 25.3 mph - N/A   Clear
4:36 PM 19.4 °F -0.3 °F 8.6 °F 63% 30.43 in 10.0 mi NNE 33.4 mph 38.0 mph N/A   Clear
4:56 PM 19.4 °F -0.3 °F 8.6 °F 63% 30.43 in 10.0 mi NNE 33.4 mph 39.1 mph N/A   Clear
5:16 PM 19.4 °F 0.5 °F 8.6 °F 63% 30.43 in 10.0 mi NNE 29.9 mph 40.3 mph N/A   Clear
5:36 PM 19.4 °F 0.5 °F 8.6 °F 63% 30.42 in 10.0 mi NNE 29.9 mph 40.3 mph N/A   Clear
5:56 PM 19.4 °F 0.2 °F 8.6 °F 63% 30.43 in 10.0 mi NNE 31.1 mph 36.8 mph N/A   Clear
6:16 PM 19.4 °F 0.2 °F 8.6 °F 63% 30.44 in 10.0 mi NNE 31.1 mph 35.7 mph N/A   Clear
6:36 PM 17.6 °F -1.3 °F 8.6 °F 68% 30.44 in 10.0 mi NNE 27.6 mph 33.4 mph N/A   Clear
6:56 PM 17.6 °F -0.3 °F 8.6 °F 68% 30.46 in 10.0 mi NNE 24.2 mph 34.5 mph N/A   Clear
7:16 PM 17.6 °F -1.9 °F 8.6 °F 68% 30.44 in 10.0 mi NNE 29.9 mph 36.8 mph N/A   Clear
7:36 PM 17.6 °F -2.5 °F 8.6 °F 68% 30.43 in 10.0 mi NNE 32.2 mph 41.4 mph N/A   Clear
7:56 PM 17.6 °F -1.3 °F 8.6 °F 68% 30.42 in 10.0 mi NNE 27.6 mph 40.3 mph N/A   Clear
8:16 PM 17.6 °F -1.6 °F 8.6 °F 68% 30.41 in 10.0 mi NNE 28.8 mph 36.8 mph N/A   Clear
8:36 PM 17.6 °F -1.9 °F 8.6 °F 68% 30.41 in 10.0 mi NNE 29.9 mph 40.3 mph N/A   Clear
8:56 PM 19.4 °F -0.0 °F 10.4 °F 68% 30.41 in 10.0 mi NNE 32.2 mph 41.4 mph N/A   Clear
9:16 PM 17.6 °F -3.1 °F 8.6 °F 68% 30.41 in 10.0 mi NNE 34.5 mph 42.6 mph N/A   Clear
9:36 PM 19.4 °F -0.8 °F 8.6 °F 63% 30.41 in 10.0 mi NNE 35.7 mph 42.6 mph N/A   Clear
9:56 PM 19.4 °F 0.2 °F 8.6 °F 63% 30.41 in 10.0 mi NNE 31.1 mph 41.4 mph N/A   Clear
10:16 PM 19.4 °F -0.0 °F 8.6 °F 63% 30.41 in 10.0 mi NNE 32.2 mph 38.0 mph N/A   Clear
10:36 PM 19.4 °F -0.0 °F 8.6 °F 63% 30.41 in 10.0 mi NNE 32.2 mph 40.3 mph N/A   Clear
10:56 PM 19.4 °F -0.3 °F 8.6 °F 63% 30.40 in 10.0 mi NNE 33.4 mph 39.1 mph N/A   Clear
11:16 PM 19.4 °F 0.2 °F 8.6 °F 63% 30.39 in 10.0 mi NNE 31.1 mph 39.1 mph N/A   Clear
11:36 PM 19.4 °F 0.2 °F 8.6 °F 63% 30.40 in 10.0 mi NNE 31.1 mph 42.6 mph N/A   Clear
11:56 PM 19.4 °F 0.2 °F 8.6 °F 63% 30.38 in 10.0 mi NNE 31.1 mph 42.6 mph N/A   Clear